New River MCAS, NC

4:15 AM EDT on April 30, 2017 (GMT -0400)
New River Marine Corps Air Station

Weather History for KNCA - July, 2013

Change the Weather History Date:

Sunday, July 21, 2013

  Actual Average Record
Temperature  
Mean Temperature 78 °F -  
Max Temperature 84 °F 86 °F 96 °F (2008)
Min Temperature 73 °F 70 °F 63 °F (2001)
Cooling Degree Days 14    
Growing Degree Days 28 (Base 50)    
Moisture  
Dew Point 72 °F    
Average Humidity 83    
Maximum Humidity 94    
Minimum Humidity 69    
Precipitation  
Precipitation 0.00 in - - ()
Sea Level Pressure  
Sea Level Pressure 30.01 in    
Wind  
Wind Speed 6 mph (SSW)    
Max Wind Speed 13 mph    
Max Gust Speed 22 mph    
Visibility 9 miles    
Events      
Averages and records for this station are not official NWS values.
T = Trace of Precipitation, MM = Missing Value Source: NWS Daily Summary

Daily Weather History Graph

Daily Weather History Graph

Search for Another Location

Airport or City:

Trip Planner

Search our weather history database for the weather conditions in past years. The results will help you decide how hot, cold, wet, or windy it might be!

Date:

Astronomy

Jul. 21, 2013 Rise Set
Actual Time 6:12 AM EDT 8:20 PM EDT
Civil Twilight 5:43 AM EDT 8:48 PM EDT
Nautical Twilight 5:08 AM EDT 9:22 PM EDT
Astronomical Twilight 4:31 AM EDT 10:00 PM EDT
Moon 7:18 PM EDT (7/21) 4:54 AM EDT (7/21)
Length of Visible Light 15h 04m
Length of Day
14h 08m
Waxing Gibbous, 98% of the Moon is Illuminated
Jul 21
Waxing Gibbous
Jul 22
Full
Jul 29
Last Quarter
Aug 6
New
Aug 14
First Quarter

Hourly Weather History & Observations

Time (EDT) Temp. Heat Index Dew Point Humidity Pressure Visibility Wind Dir Wind Speed Gust Speed Precip Events Conditions
12:56 AM 75.9 °F - 72.0 °F 87% 30.05 in 1.5 mi SW 5.8 mph - N/A   Clear
1:10 AM 75.2 °F - 71.6 °F 89% 30.03 in 10.0 mi SW 6.9 mph - N/A   Clear
1:56 AM 75.0 °F - 72.0 °F 90% 30.04 in 10.0 mi Calm Calm - N/A   Clear
2:42 AM 75.2 °F - 71.6 °F 89% 30.01 in 4.0 mi SW 8.1 mph - N/A   Haze
2:56 AM 75.0 °F - 71.1 °F 87% 30.02 in 10.0 mi South 4.6 mph - N/A   Clear
3:56 AM 75.0 °F - 69.1 °F 82% 30.01 in 10.0 mi SSW 3.5 mph - N/A   Clear
4:23 AM 75.2 °F - 69.8 °F 83% 30.00 in 1.0 mi SSW 4.6 mph - N/A   Haze
4:31 AM 75.2 °F - 69.8 °F 83% 30.00 in 3.0 mi SSW 5.8 mph - N/A   Haze
4:35 AM 75.2 °F - 69.8 °F 83% 30.00 in 1.5 mi SSW 5.8 mph - N/A   Haze
4:52 AM 75.2 °F - 69.8 °F 83% 29.99 in 2.0 mi SSW 4.6 mph - N/A   Haze
4:56 AM 75.0 °F - 70.0 °F 84% 30.00 in 9.0 mi SW 4.6 mph - N/A   Clear
5:56 AM 73.9 °F - 70.0 °F 87% 30.01 in 10.0 mi South 3.5 mph - N/A   Clear
6:56 AM 73.9 °F - 71.1 °F 91% 30.02 in 10.0 mi Calm Calm - N/A   Scattered Clouds
7:56 AM 75.9 °F - 71.1 °F 85% 30.03 in 10.0 mi WSW 8.1 mph - N/A   Clear
8:51 AM 78.8 °F - 71.6 °F 78% 30.03 in 10.0 mi West 6.9 mph - N/A   Mostly Cloudy
8:56 AM 77.0 °F - 72.0 °F 84% 30.04 in 10.0 mi West 6.9 mph - N/A   Mostly Cloudy
9:56 AM 77.0 °F - 72.0 °F 84% 30.04 in 10.0 mi West 6.9 mph - N/A   Overcast
10:56 AM 77.0 °F - 72.0 °F 84% 30.05 in 10.0 mi WSW 5.8 mph - N/A   Overcast
11:26 AM 78.8 °F - 71.6 °F 78% 30.04 in 10.0 mi WSW 8.1 mph - N/A   Overcast
11:56 AM 80.1 °F 83.8 °F 72.0 °F 76% 30.04 in 10.0 mi WSW 9.2 mph - N/A   Overcast
12:24 PM 80.6 °F 84.6 °F 71.6 °F 74% 30.04 in 10.0 mi SW 6.9 mph - N/A   Overcast
12:56 PM 81.0 °F 85.8 °F 73.0 °F 77% 30.04 in 10.0 mi SSW 4.6 mph - 0.00 in   Overcast
1:56 PM 84.0 °F 90.2 °F 73.0 °F 69% 30.01 in 10.0 mi SSW 6.9 mph - N/A   Mostly Cloudy
2:56 PM 81.0 °F 87.3 °F 75.9 °F 85% 30.00 in 10.0 mi South 8.1 mph - 0.00 in   Overcast
3:36 PM 84.2 °F 92.3 °F 75.2 °F 74% 29.98 in 10.0 mi South 11.5 mph - N/A   Mostly Cloudy
3:44 PM 82.4 °F 88.2 °F 73.4 °F 74% 29.97 in 10.0 mi South 10.4 mph - N/A   Mostly Cloudy
3:56 PM 82.0 °F 87.9 °F 73.9 °F 76% 29.98 in 10.0 mi South 6.9 mph - N/A   Mostly Cloudy
4:56 PM 84.0 °F 91.2 °F 73.9 °F 72% 29.96 in 10.0 mi South 12.7 mph 21.9 mph N/A   Scattered Clouds
5:56 PM 82.0 °F 87.9 °F 73.9 °F 76% 29.96 in 10.0 mi SSW 11.5 mph 18.4 mph N/A   Scattered Clouds
6:56 PM 81.0 °F 86.2 °F 73.9 °F 79% 29.96 in 10.0 mi South 9.2 mph - N/A   Partly Cloudy
7:56 PM 79.0 °F - 73.9 °F 84% 29.97 in 10.0 mi South 5.8 mph - N/A   Clear
8:56 PM 78.1 °F - 73.9 °F 87% 29.99 in 10.0 mi South 4.6 mph - N/A   Partly Cloudy
9:56 PM 77.0 °F - 73.9 °F 90% 30.00 in 10.0 mi SSW 4.6 mph - N/A   Partly Cloudy
10:56 PM 77.0 °F - 73.9 °F 90% 30.00 in 10.0 mi Variable 4.6 mph - N/A   Mostly Cloudy
11:56 PM 75.9 °F - 73.9 °F 94% 30.00 in 10.0 mi South 4.6 mph - N/A   Clear